Tracking 19706 objects as of 16-Jun-2019
HD Live streaming from Space Station
objects crossing your sky now

SL-8 R/B

Track SL-8 R/B now!
10-day predictions


NORAD ID: 20557
Int'l Code: 1990-029J
Perigee: 1,464.6 km
Apogee: 1,707.1 km
Inclination: 74.0 °
Period: 117.7 minutes
Semi major axis: 7956 km
RCS: 6.465 m2 (large)
Launch date: April 6, 1990
Source: Commonwealth of Independent States (former USSR) (CIS)
Launch site: PLESETSK MISSILE AND SPACE COMPLEX (PKMTR)

Note: This is a ROCKET BODY
aabbcc
Your satellite tracking list
Your tracking list is empty




NASA's NSSDC Master Catalog

Two Line Element Set (TLE):
1 20557U 90029J   19165.93562517 -.00000037 +00000-0 -19372-3 0  9996
2 20557 073.9876 064.4075 0152393 208.0250 243.5969 12.23173456303218
Source of the keplerian elements: AFSPC